SCP
1 1 1 1 1 1 1 1 1 1 1 1 0 0 0 0 0 0 0 0 0 -0
1 1 2 1 1 1 1 1 1 1 1 0 0 0 0 0 0 0 0 0 0 -0
1 1 1 1 1 1 1 1 1 0 0 0 0 0 0 0 0 0 0 0 -0 -0
1 0 0 0 0 1 1 0 0 0 0 0 0 0 0 0 0 0 0 0 0 -0
0 0 0 0 0 0 0 0 0 0 0 0 0 0 0 0 0 0 0 0 0 0
0 0 0 0 0 0 0 0 0 0 0 0 0 0 0 0 0 0 0 0 0 0
0 0 0 0 0 0 0 0 0 0 0 0 0 0 0 0 0 0 0 0 -0 -0
0 0 0 0 0 0 0 0 0 0 0 0 0 0 0 0 0 0 0 -0 -0 0
0 0 0 0 0 0 0 0 0 0 0 0 0 -0 0 -0 0 0 0 -0 -0 0
0 0 0 0 0 0 0 0 0 0 0 0 -0 -0 0 0 0 0 0 -0 -0 -0
0 0 -0 -0 -0 -0 0 0 0 0 0 -0 0 0 0 0 0 -0 0 -0 0 -0
0 -0 -0 -0 -0 -0 -0 0 0 0 -0 -0 -0 0 -0 0 0 -0 -0 -0 0 0
-0 -0 -0 -0 -0 0 0 0 0 0 -0 -0 -0 0 -0 0 0 -0 -0 -0 -0 0
-0 -0 -0 -0 -0 0 0 0 0 0 0 -0 -0 -0 -0 0 0 0 0 0 0 0
Wind_Speed_500mb
36 33 35 36 38 33 32 33 39 33 30 28 25 23 21 18 19 21 21 18 20 18
39 41 40 40 38 37 36 32 33 29 26 23 19 19 20 19 20 22 22 18 21 19
44 42 44 43 37 34 31 29 27 23 20 18 18 18 19 21 24 25 24 20 20 20
42 43 42 38 34 31 29 24 20 19 19 17 16 16 17 18 18 22 25 21 18 19
42 40 38 34 30 27 23 22 21 19 17 14 13 14 15 18 20 25 30 30 26 20
39 36 33 30 28 26 27 26 22 19 15 11 11 13 14 16 23 26 32 38 32 26
35 31 30 29 29 28 27 26 21 16 10 8 7 9 12 18 19 20 29 38 37 32
34 31 29 29 30 29 28 23 18 13 9 4 4 6 7 5 6 11 14 20 39 27
31 29 28 29 31 31 26 22 18 13 8 4 3 1 2 10 4 7 14 21 25 25
28 26 26 30 32 28 24 21 17 14 8 4 5 6 6 13 9 10 12 17 22 23
24 25 30 33 31 26 25 22 14 15 9 7 8 8 8 13 8 10 12 14 18 24
24 30 31 30 27 29 26 19 15 14 9 7 9 9 11 10 5 11 12 12 18 22
26 30 30 28 28 25 25 19 13 13 10 7 9 10 11 9 13 14 20 21 24 24
29 30 31 28 26 25 26 22 18 16 13 10 11 12 11 12 18 24 18 23 28 32
Wind_Direction_500mb
165 156 154 151 156 160 162 163 171 175 189 197 205 211 223 225 213 217 217 231 230 224
147 143 149 148 145 150 157 167 169 176 183 197 207 216 215 209 218 218 226 236 236 230
143 148 151 148 147 148 154 158 166 175 191 200 199 204 216 224 224 226 233 233 236 235
138 143 145 145 147 155 164 167 172 175 171 178 190 208 222 232 233 224 221 227 225 239
137 141 143 145 149 160 163 154 155 158 165 181 201 223 240 246 224 216 220 214 222 223
140 143 146 150 155 150 148 148 149 156 164 185 217 235 237 232 229 236 230 220 223 218
143 146 146 146 146 147 148 148 154 156 163 188 222 236 247 251 256 251 237 226 215 214
140 142 142 145 150 151 150 151 154 145 151 157 235 253 227 254 238 224 246 224 201 211
140 145 150 150 153 152 153 154 152 137 134 161 145 138 138 131 163 131 137 152 180 191
143 150 155 158 155 157 159 157 150 127 120 99 108 83 77 111 133 131 146 172 186 180
150 154 148 152 159 163 155 156 145 126 110 98 98 96 90 116 132 149 159 174 186 184
156 162 160 162 166 164 164 160 144 127 115 98 108 104 100 103 137 150 149 168 165 178
158 162 162 164 165 168 173 160 149 130 122 124 116 105 95 97 111 127 131 135 157 160
157 158 164 165 170 172 167 166 155 139 130 144 126 114 98 107 121 127 124 137 128 133
Wind_Speed_850mb
36 33 35 36 38 33 32 33 39 33 30 28 25 23 21 18 19 21 21 18 20 18
39 41 40 40 38 37 36 32 33 29 26 23 19 19 20 19 20 22 22 18 21 19
44 42 44 43 37 34 31 29 27 23 20 18 18 18 19 21 24 25 24 20 20 20
42 43 42 38 34 31 29 24 20 19 19 17 16 16 17 18 18 22 25 21 18 19
42 40 38 34 30 27 23 22 21 19 17 14 13 14 15 18 20 25 30 30 26 20
39 36 33 30 28 26 27 26 22 19 15 11 11 13 14 16 23 26 32 38 32 26
35 31 30 29 29 28 27 26 21 16 10 8 7 9 12 18 19 20 29 38 37 32
34 31 29 29 30 29 28 23 18 13 9 4 4 6 7 5 6 11 14 20 39 27
31 29 28 29 31 31 26 22 18 13 8 4 3 1 2 10 4 7 14 21 25 25
28 26 26 30 32 28 24 21 17 14 8 4 5 6 6 13 9 10 12 17 22 23
24 25 30 33 31 26 25 22 14 15 9 7 8 8 8 13 8 10 12 14 18 24
24 30 31 30 27 29 26 19 15 14 9 7 9 9 11 10 5 11 12 12 18 22
26 30 30 28 28 25 25 19 13 13 10 7 9 10 11 9 13 14 20 21 24 24
29 30 31 28 26 25 26 22 18 16 13 10 11 12 11 12 18 24 18 23 28 32
Wind_Direction_850mb
165 156 154 151 156 160 162 163 171 175 189 197 205 211 223 225 213 217 217 231 230 224
147 143 149 148 145 150 157 167 169 176 183 197 207 216 215 209 218 218 226 236 236 230
143 148 151 148 147 148 154 158 166 175 191 200 199 204 216 224 224 226 233 233 236 235
138 143 145 145 147 155 164 167 172 175 171 178 190 208 222 232 233 224 221 227 225 239
137 141 143 145 149 160 163 154 155 158 165 181 201 223 240 246 224 216 220 214 222 223
140 143 146 150 155 150 148 148 149 156 164 185 217 235 237 232 229 236 230 220 223 218
143 146 146 146 146 147 148 148 154 156 163 188 222 236 247 251 256 251 237 226 215 214
140 142 142 145 150 151 150 151 154 145 151 157 235 253 227 254 238 224 246 224 201 211
140 145 150 150 153 152 153 154 152 137 134 161 145 138 138 131 163 131 137 152 180 191
143 150 155 158 155 157 159 157 150 127 120 99 108 83 77 111 133 131 146 172 186 180
150 154 148 152 159 163 155 156 145 126 110 98 98 96 90 116 132 149 159 174 186 184
156 162 160 162 166 164 164 160 144 127 115 98 108 104 100 103 137 150 149 168 165 178
158 162 162 164 165 168 173 160 149 130 122 124 116 105 95 97 111 127 131 135 157 160
157 158 164 165 170 172 167 166 155 139 130 144 126 114 98 107 121 127 124 137 128 133